Year,Month,Day,Hour,Minute,Value (Times are PST for temperature in C)
2017,08,04,00,00,20.40
2017,08,04,00,01,20.40
2017,08,04,00,02,20.30
2017,08,04,00,03,20.30
2017,08,04,00,04,20.30
2017,08,04,00,05,20.30
2017,08,04,00,06,20.30
2017,08,04,00,07,20.30
2017,08,04,00,08,20.30
2017,08,04,00,09,20.30
2017,08,04,00,10,20.30
2017,08,04,00,11,20.30
2017,08,04,00,12,20.20
2017,08,04,00,13,20.20
2017,08,04,00,14,20.20
2017,08,04,00,15,20.20
2017,08,04,00,16,20.10
2017,08,04,00,17,20.10
2017,08,04,00,18,20.10
2017,08,04,00,19,20.10
2017,08,04,00,20,20.00
2017,08,04,00,21,20.00
2017,08,04,00,22,20.00
2017,08,04,00,23,19.90
2017,08,04,00,24,19.90
2017,08,04,00,25,19.90
2017,08,04,00,26,19.90
2017,08,04,00,27,19.90
2017,08,04,00,28,19.80
2017,08,04,00,29,19.80
2017,08,04,00,30,19.80
2017,08,04,00,31,19.80
2017,08,04,00,32,19.80
2017,08,04,00,33,19.80
2017,08,04,00,34,19.70
2017,08,04,00,35,19.70
2017,08,04,00,36,19.70
2017,08,04,00,37,19.70
2017,08,04,00,38,19.60
2017,08,04,00,39,19.60
2017,08,04,00,40,19.60
2017,08,04,00,41,19.50
2017,08,04,00,42,19.50
2017,08,04,00,43,19.40
2017,08,04,00,44,19.40
2017,08,04,00,45,19.40
2017,08,04,00,46,19.30
2017,08,04,00,47,19.30
2017,08,04,00,48,19.30
2017,08,04,00,49,19.30
2017,08,04,00,50,19.30
2017,08,04,00,51,19.20
2017,08,04,00,52,19.20
2017,08,04,00,53,19.20
2017,08,04,00,54,19.20
2017,08,04,00,55,19.20
2017,08,04,00,56,19.20
2017,08,04,00,57,19.20
2017,08,04,00,58,19.20
2017,08,04,00,59,19.20
2017,08,04,01,00,19.20
2017,08,04,01,01,19.20
2017,08,04,01,02,19.20
2017,08,04,01,03,19.20
2017,08,04,01,04,19.20
2017,08,04,01,05,19.20
2017,08,04,01,06,19.20
2017,08,04,01,07,19.10
2017,08,04,01,08,19.10
2017,08,04,01,09,19.10
2017,08,04,01,10,19.10
2017,08,04,01,11,19.10
2017,08,04,01,12,19.10
2017,08,04,01,13,19.00
2017,08,04,01,14,19.00
2017,08,04,01,15,19.00
2017,08,04,01,16,18.90
2017,08,04,01,17,18.90
2017,08,04,01,18,18.90
2017,08,04,01,19,18.90
2017,08,04,01,20,18.90
2017,08,04,01,21,18.90
2017,08,04,01,22,18.80
2017,08,04,01,23,18.80
2017,08,04,01,24,18.80
2017,08,04,01,25,18.80
2017,08,04,01,26,18.80
2017,08,04,01,27,18.80
2017,08,04,01,28,18.70
2017,08,04,01,29,18.70
2017,08,04,01,30,18.70
2017,08,04,01,31,18.70
2017,08,04,01,32,18.70
2017,08,04,01,33,18.60
2017,08,04,01,34,18.60
2017,08,04,01,35,18.60
2017,08,04,01,36,18.60
2017,08,04,01,37,18.50
2017,08,04,01,38,18.50
2017,08,04,01,39,18.50
2017,08,04,01,40,18.40
2017,08,04,01,41,18.40
2017,08,04,01,42,18.40
2017,08,04,01,43,18.40
2017,08,04,01,44,18.40
2017,08,04,01,45,18.40
2017,08,04,01,46,18.30
2017,08,04,01,47,18.30
2017,08,04,01,48,18.30
2017,08,04,01,49,18.30
2017,08,04,01,50,18.30
2017,08,04,01,51,18.30
2017,08,04,01,52,18.30
2017,08,04,01,53,18.20
2017,08,04,01,54,18.20
2017,08,04,01,55,18.20
2017,08,04,01,56,18.20
2017,08,04,01,57,18.20
2017,08,04,01,58,18.20
2017,08,04,01,59,18.10
2017,08,04,02,00,18.10
2017,08,04,02,01,18.10
2017,08,04,02,02,18.10
2017,08,04,02,03,18.10
2017,08,04,02,04,18.10
2017,08,04,02,05,18.10
2017,08,04,02,06,18.10
2017,08,04,02,07,18.00
2017,08,04,02,08,18.00
2017,08,04,02,09,18.00
2017,08,04,02,10,17.90
2017,08,04,02,11,17.90
2017,08,04,02,12,17.90
2017,08,04,02,13,17.90
2017,08,04,02,14,17.90
2017,08,04,02,15,17.90
2017,08,04,02,16,17.90
2017,08,04,02,17,17.80
2017,08,04,02,18,17.80
2017,08,04,02,19,17.80
2017,08,04,02,20,17.80
2017,08,04,02,21,17.80
2017,08,04,02,22,17.80
2017,08,04,02,23,17.80
2017,08,04,02,24,17.80
2017,08,04,02,25,17.80
2017,08,04,02,26,17.80
2017,08,04,02,27,17.70
2017,08,04,02,28,17.70
2017,08,04,02,29,17.70
2017,08,04,02,30,17.70
2017,08,04,02,31,17.70
2017,08,04,02,32,17.70
2017,08,04,02,33,17.70
2017,08,04,02,34,17.70
2017,08,04,02,35,17.70
2017,08,04,02,36,17.70
2017,08,04,02,37,17.70
2017,08,04,02,38,17.60
2017,08,04,02,39,17.60
2017,08,04,02,40,17.60
2017,08,04,02,41,17.60
2017,08,04,02,42,17.60
2017,08,04,02,43,17.60
2017,08,04,02,44,17.60
2017,08,04,02,45,17.60
2017,08,04,02,46,17.60
2017,08,04,02,47,17.50
2017,08,04,02,48,17.60
2017,08,04,02,49,17.50
2017,08,04,02,50,17.50
2017,08,04,02,51,17.50
2017,08,04,02,52,17.50
2017,08,04,02,53,17.50
2017,08,04,02,54,17.40
2017,08,04,02,55,17.40
2017,08,04,02,56,17.40
2017,08,04,02,57,17.40
2017,08,04,02,58,17.40
2017,08,04,02,59,17.40
2017,08,04,03,00,17.40
2017,08,04,03,01,17.30
2017,08,04,03,02,17.30
2017,08,04,03,03,17.30
2017,08,04,03,04,17.30
2017,08,04,03,05,17.30
2017,08,04,03,06,17.30
2017,08,04,03,07,17.30
2017,08,04,03,08,17.30
2017,08,04,03,09,17.30
2017,08,04,03,10,17.30
2017,08,04,03,11,17.30
2017,08,04,03,12,17.30
2017,08,04,03,13,17.30
2017,08,04,03,14,17.30
2017,08,04,03,15,17.20
2017,08,04,03,16,17.20
2017,08,04,03,17,17.20
2017,08,04,03,18,17.20
2017,08,04,03,19,17.20
2017,08,04,03,20,17.20
2017,08,04,03,21,17.20
2017,08,04,03,22,17.20
2017,08,04,03,23,17.20
2017,08,04,03,24,17.20
2017,08,04,03,25,17.10
2017,08,04,03,26,17.10
2017,08,04,03,27,17.10
2017,08,04,03,28,17.10
2017,08,04,03,29,17.10
2017,08,04,03,30,17.00
2017,08,04,03,31,17.00
2017,08,04,03,32,17.00
2017,08,04,03,33,17.00
2017,08,04,03,34,16.90
2017,08,04,03,35,16.90
2017,08,04,03,36,16.90
2017,08,04,03,37,16.90
2017,08,04,03,38,16.90
2017,08,04,03,39,16.90
2017,08,04,03,40,16.90
2017,08,04,03,41,16.90
2017,08,04,03,42,16.80
2017,08,04,03,43,16.80
2017,08,04,03,44,16.80
2017,08,04,03,45,16.80
2017,08,04,03,46,16.80
2017,08,04,03,47,16.80
2017,08,04,03,48,16.80
2017,08,04,03,49,16.80
2017,08,04,03,50,16.80
2017,08,04,03,51,16.80
2017,08,04,03,52,16.80
2017,08,04,03,53,16.80
2017,08,04,03,54,16.80
2017,08,04,03,55,16.80
2017,08,04,03,56,16.80
2017,08,04,03,57,16.80
2017,08,04,03,58,16.80
2017,08,04,03,59,16.70
2017,08,04,04,00,16.70
2017,08,04,04,01,16.70
2017,08,04,04,02,16.70
2017,08,04,04,03,16.70
2017,08,04,04,04,16.60
2017,08,04,04,05,16.60
2017,08,04,04,06,16.60
2017,08,04,04,07,16.60
2017,08,04,04,08,16.60
2017,08,04,04,09,16.50
2017,08,04,04,10,16.50
2017,08,04,04,11,16.50
2017,08,04,04,12,16.50
2017,08,04,04,13,16.50
2017,08,04,04,14,16.50
2017,08,04,04,15,16.40
2017,08,04,04,16,16.40
2017,08,04,04,17,16.40
2017,08,04,04,18,16.40
2017,08,04,04,19,16.40
2017,08,04,04,20,16.40
2017,08,04,04,21,16.40
2017,08,04,04,22,16.40
2017,08,04,04,23,16.40
2017,08,04,04,24,16.40
2017,08,04,04,25,16.30
2017,08,04,04,26,16.40
2017,08,04,04,27,16.30
2017,08,04,04,28,16.30
2017,08,04,04,29,16.30
2017,08,04,04,30,16.30
2017,08,04,04,31,16.30
2017,08,04,04,32,16.30
2017,08,04,04,33,16.30
2017,08,04,04,34,16.40
2017,08,04,04,35,16.40
2017,08,04,04,36,16.40
2017,08,04,04,37,16.30
2017,08,04,04,38,16.30
2017,08,04,04,39,16.30
2017,08,04,04,40,16.30
2017,08,04,04,41,16.30
2017,08,04,04,42,16.30
2017,08,04,04,43,16.30
2017,08,04,04,44,16.30
2017,08,04,04,45,16.30
2017,08,04,04,46,16.30
2017,08,04,04,47,16.30
2017,08,04,04,48,16.30
2017,08,04,04,49,16.30
2017,08,04,04,50,16.30
2017,08,04,04,51,16.30
2017,08,04,04,52,16.30
2017,08,04,04,53,16.30
2017,08,04,04,54,16.30
2017,08,04,04,55,16.30
2017,08,04,04,56,16.30
2017,08,04,04,57,16.30
2017,08,04,04,58,16.30
2017,08,04,04,59,16.30
2017,08,04,05,00,16.30
2017,08,04,05,01,16.30
2017,08,04,05,02,16.30
2017,08,04,05,03,16.30
2017,08,04,05,04,16.30
2017,08,04,05,05,16.30
2017,08,04,05,06,16.30
2017,08,04,05,07,16.30
2017,08,04,05,08,16.20
2017,08,04,05,09,16.20
2017,08,04,05,10,16.20
2017,08,04,05,11,16.20
2017,08,04,05,12,16.20
2017,08,04,05,13,16.10
2017,08,04,05,14,16.10
2017,08,04,05,15,16.10
2017,08,04,05,16,16.10
2017,08,04,05,17,16.10
2017,08,04,05,18,16.10
2017,08,04,05,19,16.10
2017,08,04,05,20,16.00
2017,08,04,05,21,16.00
2017,08,04,05,22,16.00
2017,08,04,05,23,16.00
2017,08,04,05,24,16.00
2017,08,04,05,25,16.00
2017,08,04,05,26,16.00
2017,08,04,05,27,16.00
2017,08,04,05,28,16.00
2017,08,04,05,29,16.00
2017,08,04,05,30,16.00
2017,08,04,05,31,15.90
2017,08,04,05,32,15.90
2017,08,04,05,33,15.90
2017,08,04,05,34,15.90
2017,08,04,05,35,15.90
2017,08,04,05,36,15.90
2017,08,04,05,37,15.80
2017,08,04,05,38,15.80
2017,08,04,05,39,15.80
2017,08,04,05,40,15.80
2017,08,04,05,41,15.80
2017,08,04,05,42,15.80
2017,08,04,05,43,15.80
2017,08,04,05,44,15.70
2017,08,04,05,45,15.70
2017,08,04,05,46,15.70
2017,08,04,05,47,15.70
2017,08,04,05,48,15.70
2017,08,04,05,49,15.70
2017,08,04,05,50,15.70
2017,08,04,05,51,15.70
2017,08,04,05,52,15.70
2017,08,04,05,53,15.70
2017,08,04,05,54,15.70
2017,08,04,05,55,15.70
2017,08,04,05,56,15.70
2017,08,04,05,57,15.70
2017,08,04,05,58,15.70
2017,08,04,05,59,15.70
2017,08,04,06,00,15.70
2017,08,04,06,01,15.70
2017,08,04,06,02,15.70
2017,08,04,06,03,15.70
2017,08,04,06,04,15.70
2017,08,04,06,05,15.70
2017,08,04,06,06,15.70
2017,08,04,06,07,15.70
2017,08,04,06,08,15.70
2017,08,04,06,09,15.70
2017,08,04,06,10,15.70
2017,08,04,06,11,15.70
2017,08,04,06,12,15.70
2017,08,04,06,13,15.80
2017,08,04,06,14,15.80
2017,08,04,06,15,15.80
2017,08,04,06,16,15.80
2017,08,04,06,17,15.80
2017,08,04,06,18,15.80
2017,08,04,06,19,15.70
2017,08,04,06,20,15.70
2017,08,04,06,21,15.70
2017,08,04,06,22,15.70
2017,08,04,06,23,15.70
2017,08,04,06,24,15.80
2017,08,04,06,25,15.80
2017,08,04,06,26,15.80
2017,08,04,06,27,15.80
2017,08,04,06,28,15.80
2017,08,04,06,29,15.80
2017,08,04,06,30,15.80
2017,08,04,06,31,15.80
2017,08,04,06,32,15.80
2017,08,04,06,33,15.80
2017,08,04,06,34,15.80
2017,08,04,06,35,15.80
2017,08,04,06,36,15.80
2017,08,04,06,37,15.80
2017,08,04,06,38,15.80
2017,08,04,06,39,15.80
2017,08,04,06,40,15.80
2017,08,04,06,41,15.80
2017,08,04,06,42,15.80
2017,08,04,06,43,15.80
2017,08,04,06,44,15.80
2017,08,04,06,45,15.90
2017,08,04,06,46,15.90
2017,08,04,06,47,15.90
2017,08,04,06,48,15.90
2017,08,04,06,49,15.90
2017,08,04,06,50,15.90
2017,08,04,06,51,15.90
2017,08,04,06,52,15.90
2017,08,04,06,53,15.90
2017,08,04,06,54,15.90
2017,08,04,06,55,16.00
2017,08,04,06,56,16.00
2017,08,04,06,57,16.00
2017,08,04,06,58,16.10
2017,08,04,06,59,16.10
2017,08,04,07,00,16.10
2017,08,04,07,01,16.10
2017,08,04,07,02,16.20
2017,08,04,07,03,16.20
2017,08,04,07,04,16.20
2017,08,04,07,05,16.30
2017,08,04,07,06,16.30
2017,08,04,07,07,16.30
2017,08,04,07,08,16.30
2017,08,04,07,09,16.30
2017,08,04,07,10,16.40
2017,08,04,07,11,16.40
2017,08,04,07,12,16.40
2017,08,04,07,13,16.40
2017,08,04,07,14,16.50
2017,08,04,07,15,16.50
2017,08,04,07,16,16.50
2017,08,04,07,17,16.50
2017,08,04,07,18,16.60
2017,08,04,07,19,16.60
2017,08,04,07,20,16.60
2017,08,04,07,21,16.60
2017,08,04,07,22,16.70
2017,08,04,07,23,16.70
2017,08,04,07,24,16.70
2017,08,04,07,25,16.80
2017,08,04,07,26,16.80
2017,08,04,07,27,16.90
2017,08,04,07,28,16.90
2017,08,04,07,29,17.00
2017,08,04,07,30,17.00
2017,08,04,07,31,17.10
2017,08,04,07,32,17.20
2017,08,04,07,33,17.30
2017,08,04,07,34,17.30
2017,08,04,07,35,17.40
2017,08,04,07,36,17.50
2017,08,04,07,37,17.60
2017,08,04,07,38,17.70
2017,08,04,07,39,17.80
2017,08,04,07,40,17.80
2017,08,04,07,41,18.00
2017,08,04,07,42,18.10
2017,08,04,07,43,18.20
2017,08,04,07,44,18.30
2017,08,04,07,45,18.40
2017,08,04,07,46,18.40
2017,08,04,07,47,18.50
2017,08,04,07,48,18.60
2017,08,04,07,49,18.70
2017,08,04,07,50,18.80
2017,08,04,07,51,18.90
2017,08,04,07,52,19.00
2017,08,04,07,53,19.00
2017,08,04,07,54,19.10
2017,08,04,07,55,19.20
2017,08,04,07,56,19.30
2017,08,04,07,57,19.40
2017,08,04,07,58,19.50
2017,08,04,07,59,19.50
2017,08,04,08,00,19.60
2017,08,04,08,01,19.70
2017,08,04,08,02,19.80
2017,08,04,08,03,19.90
2017,08,04,08,04,19.90
2017,08,04,08,05,20.00
2017,08,04,08,06,20.10
2017,08,04,08,07,20.10
2017,08,04,08,08,20.20
2017,08,04,08,09,20.30
2017,08,04,08,10,20.30
2017,08,04,08,11,20.40
2017,08,04,08,12,20.50
2017,08,04,08,13,20.50
2017,08,04,08,14,20.60
2017,08,04,08,15,20.60
2017,08,04,08,16,20.70
2017,08,04,08,17,20.70
2017,08,04,08,18,20.80
2017,08,04,08,19,20.90
2017,08,04,08,20,20.90
2017,08,04,08,21,21.00
2017,08,04,08,22,21.10
2017,08,04,08,23,21.10
2017,08,04,08,24,21.20
2017,08,04,08,25,21.30
2017,08,04,08,26,21.40
2017,08,04,08,27,21.40
2017,08,04,08,28,21.50
2017,08,04,08,29,21.60
2017,08,04,08,30,21.70
2017,08,04,08,31,21.70
2017,08,04,08,32,21.80
2017,08,04,08,33,21.80
2017,08,04,08,34,21.90
2017,08,04,08,35,21.90
2017,08,04,08,36,22.00
2017,08,04,08,37,22.10
2017,08,04,08,38,22.10
2017,08,04,08,39,22.20
2017,08,04,08,40,22.30
2017,08,04,08,41,22.30
2017,08,04,08,42,22.40
2017,08,04,08,43,22.40
2017,08,04,08,44,22.50
2017,08,04,08,45,22.50
2017,08,04,08,46,22.50
2017,08,04,08,47,22.60
2017,08,04,08,48,22.60
2017,08,04,08,49,22.60
2017,08,04,08,50,22.70
2017,08,04,08,51,22.70
2017,08,04,08,52,22.80
2017,08,04,08,53,22.80
2017,08,04,08,54,22.90
2017,08,04,08,55,22.90
2017,08,04,08,56,23.00
2017,08,04,08,57,23.00
2017,08,04,08,58,23.10
2017,08,04,08,59,23.20
2017,08,04,09,00,23.20
2017,08,04,09,01,23.30
2017,08,04,09,02,23.40
2017,08,04,09,03,23.40
2017,08,04,09,04,23.40
2017,08,04,09,05,23.40
2017,08,04,09,06,23.40
2017,08,04,09,07,23.40
2017,08,04,09,08,23.40
2017,08,04,09,09,23.50
2017,08,04,09,10,23.50
2017,08,04,09,11,23.50
2017,08,04,09,12,23.50
2017,08,04,09,13,23.50
2017,08,04,09,14,23.50
2017,08,04,09,15,23.60
2017,08,04,09,16,23.60
2017,08,04,09,17,23.60
2017,08,04,09,18,23.60
2017,08,04,09,19,23.60
2017,08,04,09,20,23.60
2017,08,04,09,21,23.70
2017,08,04,09,22,23.60
2017,08,04,09,23,23.60
2017,08,04,09,24,23.60
2017,08,04,09,25,23.60
2017,08,04,09,26,23.60
2017,08,04,09,27,23.50
2017,08,04,09,28,23.50
2017,08,04,09,29,23.50
2017,08,04,09,30,23.60
2017,08,04,09,31,23.60
2017,08,04,09,32,23.60
2017,08,04,09,33,23.60
2017,08,04,09,34,23.60
2017,08,04,09,35,23.60
2017,08,04,09,36,23.60
2017,08,04,09,37,23.50
2017,08,04,09,38,23.50
2017,08,04,09,39,23.50
2017,08,04,09,40,23.50
2017,08,04,09,41,23.50
2017,08,04,09,42,23.60
2017,08,04,09,43,23.60
2017,08,04,09,44,23.60
2017,08,04,09,45,23.60
2017,08,04,09,46,23.70
2017,08,04,09,47,23.70
2017,08,04,09,48,23.80
2017,08,04,09,49,23.80
2017,08,04,09,50,23.90
2017,08,04,09,51,24.00
2017,08,04,09,52,24.10
2017,08,04,09,53,24.20
2017,08,04,09,54,24.30
2017,08,04,09,55,24.40
2017,08,04,09,56,24.40
2017,08,04,09,57,24.40
2017,08,04,09,58,24.40
2017,08,04,09,59,24.40
2017,08,04,10,00,24.40
2017,08,04,10,01,24.50
2017,08,04,10,02,24.50
2017,08,04,10,03,24.60
2017,08,04,10,04,24.60
2017,08,04,10,05,24.60
2017,08,04,10,06,24.60
2017,08,04,10,07,24.60
2017,08,04,10,08,24.60
2017,08,04,10,09,24.60
2017,08,04,10,10,24.60
2017,08,04,10,11,24.60
2017,08,04,10,12,24.60
2017,08,04,10,13,24.60
2017,08,04,10,14,24.70
2017,08,04,10,15,24.70
2017,08,04,10,16,24.80
2017,08,04,10,17,24.80
2017,08,04,10,18,24.80
2017,08,04,10,19,24.80
2017,08,04,10,20,24.70
2017,08,04,10,21,24.60
2017,08,04,10,22,24.60
2017,08,04,10,23,24.50
2017,08,04,10,24,24.50
2017,08,04,10,25,24.40
2017,08,04,10,26,24.30
2017,08,04,10,27,24.40
2017,08,04,10,28,24.50
2017,08,04,10,29,24.50
2017,08,04,10,30,24.50
2017,08,04,10,31,24.60
2017,08,04,10,32,24.60
2017,08,04,10,33,24.50
2017,08,04,10,34,24.50
2017,08,04,10,35,24.60
2017,08,04,10,36,24.60
2017,08,04,10,37,24.60
2017,08,04,10,38,24.60
2017,08,04,10,39,24.60
2017,08,04,10,40,24.60
2017,08,04,10,41,24.70
2017,08,04,10,42,24.80
2017,08,04,10,43,24.80
2017,08,04,10,44,24.90
2017,08,04,10,45,24.90
2017,08,04,10,46,25.00
2017,08,04,10,47,25.10
2017,08,04,10,48,25.20
2017,08,04,10,49,25.30
2017,08,04,10,50,25.30
2017,08,04,10,51,25.30
2017,08,04,10,52,25.40
2017,08,04,10,53,25.40
2017,08,04,10,54,25.50
2017,08,04,10,55,25.60
2017,08,04,10,56,25.70
2017,08,04,10,57,25.90
2017,08,04,10,58,25.90
2017,08,04,10,59,26.00
2017,08,04,11,00,26.20
2017,08,04,11,01,26.30
2017,08,04,11,02,26.50
2017,08,04,11,03,26.60
2017,08,04,11,04,26.80
2017,08,04,11,05,26.80
2017,08,04,11,06,26.70
2017,08,04,11,07,26.50
2017,08,04,11,08,26.40
2017,08,04,11,09,26.30
2017,08,04,11,10,26.30
2017,08,04,11,11,26.20
2017,08,04,11,12,26.20
2017,08,04,11,13,26.20
2017,08,04,11,14,26.30
2017,08,04,11,15,26.30
2017,08,04,11,16,26.40
2017,08,04,11,17,26.40
2017,08,04,11,18,26.50
2017,08,04,11,19,26.40
2017,08,04,11,20,26.20
2017,08,04,11,21,26.10
2017,08,04,11,22,25.90
2017,08,04,11,23,25.60
2017,08,04,11,24,25.50
2017,08,04,11,25,25.50
2017,08,04,11,26,25.50
2017,08,04,11,27,25.50
2017,08,04,11,28,25.60
2017,08,04,11,29,25.60
2017,08,04,11,30,25.70
2017,08,04,11,31,25.80
2017,08,04,11,32,25.80
2017,08,04,11,33,25.90
2017,08,04,11,34,26.00
2017,08,04,11,35,26.10
2017,08,04,11,36,26.20
2017,08,04,11,37,26.30
2017,08,04,11,38,26.40
2017,08,04,11,39,26.60
2017,08,04,11,40,26.70
2017,08,04,11,41,26.80
2017,08,04,11,42,26.90
2017,08,04,11,43,26.80
2017,08,04,11,44,26.80
2017,08,04,11,45,26.80
2017,08,04,11,46,26.80
2017,08,04,11,47,26.90
2017,08,04,11,48,27.00
2017,08,04,11,49,27.10
2017,08,04,11,50,27.10
2017,08,04,11,51,27.20
2017,08,04,11,52,27.30
2017,08,04,11,53,27.40
2017,08,04,11,54,27.50
2017,08,04,11,55,27.60
2017,08,04,11,56,27.50
2017,08,04,11,57,27.50
2017,08,04,11,58,27.50
2017,08,04,11,59,27.50
2017,08,04,12,00,27.40
2017,08,04,12,01,27.40
2017,08,04,12,02,27.30
2017,08,04,12,03,27.30
2017,08,04,12,04,27.30
2017,08,04,12,05,27.30
2017,08,04,12,06,27.30
2017,08,04,12,07,27.30
2017,08,04,12,08,27.30
2017,08,04,12,09,27.30
2017,08,04,12,10,27.20
2017,08,04,12,11,27.20
2017,08,04,12,12,27.20
2017,08,04,12,13,27.20
2017,08,04,12,14,27.30
2017,08,04,12,15,27.40
2017,08,04,12,16,27.50
2017,08,04,12,17,27.60
2017,08,04,12,18,27.70
2017,08,04,12,19,27.70
2017,08,04,12,20,27.80
2017,08,04,12,21,27.80
2017,08,04,12,22,27.80
2017,08,04,12,23,27.90
2017,08,04,12,24,28.00
2017,08,04,12,25,28.20
2017,08,04,12,26,28.30
2017,08,04,12,27,28.30
2017,08,04,12,28,28.10
2017,08,04,12,29,27.80
2017,08,04,12,30,27.60
2017,08,04,12,31,27.30
2017,08,04,12,32,27.10
2017,08,04,12,33,27.00
2017,08,04,12,34,27.00
2017,08,04,12,35,27.10
2017,08,04,12,36,27.00
2017,08,04,12,37,27.00
2017,08,04,12,38,26.90
2017,08,04,12,39,26.90
2017,08,04,12,40,26.80
2017,08,04,12,41,26.80
2017,08,04,12,42,26.90
2017,08,04,12,43,26.90
2017,08,04,12,44,26.90
2017,08,04,12,45,26.80
2017,08,04,12,46,26.80
2017,08,04,12,47,26.80
2017,08,04,12,48,26.90
2017,08,04,12,49,27.00
2017,08,04,12,50,27.10
2017,08,04,12,51,27.10
2017,08,04,12,52,27.10
2017,08,04,12,53,27.20
2017,08,04,12,54,27.30
2017,08,04,12,55,27.40
2017,08,04,12,56,27.30
2017,08,04,12,57,27.20
2017,08,04,12,58,27.10
2017,08,04,12,59,27.10
2017,08,04,13,00,27.10
2017,08,04,13,01,27.20
2017,08,04,13,02,27.20
2017,08,04,13,03,27.30
2017,08,04,13,04,27.30
2017,08,04,13,05,27.30
2017,08,04,13,06,27.40
2017,08,04,13,07,27.50
2017,08,04,13,08,27.60
2017,08,04,13,09,27.70
2017,08,04,13,10,27.80
2017,08,04,13,11,28.00
2017,08,04,13,12,28.00
2017,08,04,13,13,28.10
2017,08,04,13,14,28.10
2017,08,04,13,15,28.20
2017,08,04,13,16,28.20
2017,08,04,13,17,28.20
2017,08,04,13,18,28.20
2017,08,04,13,19,28.20
2017,08,04,13,20,28.20
2017,08,04,13,21,28.10
2017,08,04,13,22,28.10
2017,08,04,13,23,28.10
2017,08,04,13,24,28.10
2017,08,04,13,25,28.20
2017,08,04,13,26,28.30
2017,08,04,13,27,28.30
2017,08,04,13,28,28.20
2017,08,04,13,29,28.10
2017,08,04,13,30,28.10
2017,08,04,13,31,28.10
2017,08,04,13,32,28.10
2017,08,04,13,33,28.10
2017,08,04,13,34,28.20
2017,08,04,13,35,28.30
2017,08,04,13,36,28.30
2017,08,04,13,37,28.30
2017,08,04,13,38,28.30
2017,08,04,13,39,28.30
2017,08,04,13,40,28.40
2017,08,04,13,41,28.50
2017,08,04,13,42,28.60
2017,08,04,13,43,28.70
2017,08,04,13,44,28.70
2017,08,04,13,45,28.50
2017,08,04,13,46,28.50
2017,08,04,13,47,28.60
2017,08,04,13,48,28.60
2017,08,04,13,49,28.60
2017,08,04,13,50,28.60
2017,08,04,13,51,28.60
2017,08,04,13,52,28.70
2017,08,04,13,53,28.70
2017,08,04,13,54,28.70
2017,08,04,13,55,28.70
2017,08,04,13,56,28.50
2017,08,04,13,57,28.40
2017,08,04,13,58,28.30
2017,08,04,13,59,28.30
2017,08,04,14,00,28.20
2017,08,04,14,01,28.10
2017,08,04,14,02,27.90
2017,08,04,14,03,27.70
2017,08,04,14,04,27.50
2017,08,04,14,05,27.40
2017,08,04,14,06,27.30
2017,08,04,14,07,27.10
2017,08,04,14,08,26.90
2017,08,04,14,09,26.80
2017,08,04,14,10,26.80
2017,08,04,14,11,26.80
2017,08,04,14,12,26.80
2017,08,04,14,13,26.90
2017,08,04,14,14,26.90
2017,08,04,14,15,26.90
2017,08,04,14,16,27.00
2017,08,04,14,17,27.00
2017,08,04,14,18,27.10
2017,08,04,14,19,27.10
2017,08,04,14,20,27.10
2017,08,04,14,21,27.20
2017,08,04,14,22,27.20
2017,08,04,14,23,27.20
2017,08,04,14,24,27.20
2017,08,04,14,25,27.20
2017,08,04,14,26,27.30
2017,08,04,14,27,27.30
2017,08,04,14,28,27.20
2017,08,04,14,29,27.20
2017,08,04,14,30,27.10
2017,08,04,14,31,27.10
2017,08,04,14,32,27.10
2017,08,04,14,33,27.20
2017,08,04,14,34,27.20
2017,08,04,14,35,27.20
2017,08,04,14,36,27.20
2017,08,04,14,37,27.30
2017,08,04,14,38,27.30
2017,08,04,14,39,27.40
2017,08,04,14,40,27.40
2017,08,04,14,41,27.40
2017,08,04,14,42,27.50
2017,08,04,14,43,27.50
2017,08,04,14,44,27.50
2017,08,04,14,45,27.50
2017,08,04,14,46,27.60
2017,08,04,14,47,27.60
2017,08,04,14,48,27.60
2017,08,04,14,49,27.70
2017,08,04,14,50,27.60
2017,08,04,14,51,27.60
2017,08,04,14,52,27.60
2017,08,04,14,53,27.60
2017,08,04,14,54,27.60
2017,08,04,14,55,27.60
2017,08,04,14,56,27.60
2017,08,04,14,57,27.50
2017,08,04,14,58,27.50
2017,08,04,14,59,27.50
2017,08,04,15,00,27.40
2017,08,04,15,01,27.50
2017,08,04,15,02,27.50
2017,08,04,15,03,27.60
2017,08,04,15,04,27.60
2017,08,04,15,05,27.60
2017,08,04,15,06,27.70
2017,08,04,15,07,27.80
2017,08,04,15,08,27.80
2017,08,04,15,09,27.80
2017,08,04,15,10,27.70
2017,08,04,15,11,27.70
2017,08,04,15,12,27.70
2017,08,04,15,13,27.70
2017,08,04,15,14,27.80
2017,08,04,15,15,27.90
2017,08,04,15,16,28.00
2017,08,04,15,17,28.10
2017,08,04,15,18,28.10
2017,08,04,15,19,28.00
2017,08,04,15,20,28.00
2017,08,04,15,21,28.10
2017,08,04,15,22,28.10
2017,08,04,15,23,28.20
2017,08,04,15,24,28.20
2017,08,04,15,25,28.30
2017,08,04,15,26,28.40
2017,08,04,15,27,28.50
2017,08,04,15,28,28.60
2017,08,04,15,29,28.70
2017,08,04,15,30,28.90
2017,08,04,15,31,28.90
2017,08,04,15,32,28.90
2017,08,04,15,33,28.70
2017,08,04,15,34,28.70
2017,08,04,15,35,28.70
2017,08,04,15,36,28.70
2017,08,04,15,37,28.70
2017,08,04,15,38,28.70
2017,08,04,15,39,28.60
2017,08,04,15,40,28.60
2017,08,04,15,41,28.60
2017,08,04,15,42,28.50
2017,08,04,15,43,28.40
2017,08,04,15,44,28.30
2017,08,04,15,45,28.40
2017,08,04,15,46,28.30
2017,08,04,15,47,28.30
2017,08,04,15,48,28.30
2017,08,04,15,49,28.30
2017,08,04,15,50,28.20
2017,08,04,15,51,28.20
2017,08,04,15,52,28.30
2017,08,04,15,53,28.30
2017,08,04,15,54,28.30
2017,08,04,15,55,28.40
2017,08,04,15,56,28.40
2017,08,04,15,57,28.30
2017,08,04,15,58,28.30
2017,08,04,15,59,28.20
2017,08,04,16,00,28.20
2017,08,04,16,01,28.10
2017,08,04,16,02,28.10
2017,08,04,16,03,28.00
2017,08,04,16,04,28.10
2017,08,04,16,05,28.10
2017,08,04,16,06,28.00
2017,08,04,16,07,27.90
2017,08,04,16,08,27.90
2017,08,04,16,09,27.90
2017,08,04,16,10,27.90
2017,08,04,16,11,27.90
2017,08,04,16,12,28.00
2017,08,04,16,13,28.10
2017,08,04,16,14,28.20
2017,08,04,16,15,28.10
2017,08,04,16,16,28.10
2017,08,04,16,17,28.10
2017,08,04,16,18,28.10
2017,08,04,16,19,28.20
2017,08,04,16,20,28.30
2017,08,04,16,21,28.40
2017,08,04,16,22,28.60
2017,08,04,16,23,28.70
2017,08,04,16,24,28.80
2017,08,04,16,25,29.00
2017,08,04,16,26,29.10
2017,08,04,16,27,29.20
2017,08,04,16,28,29.20
2017,08,04,16,29,29.10
2017,08,04,16,30,29.10
2017,08,04,16,31,29.10
2017,08,04,16,32,29.00
2017,08,04,16,33,28.90
2017,08,04,16,34,28.90
2017,08,04,16,35,28.90
2017,08,04,16,36,28.80
2017,08,04,16,37,28.80
2017,08,04,16,38,28.80
2017,08,04,16,39,28.70
2017,08,04,16,40,28.70
2017,08,04,16,41,28.60
2017,08,04,16,42,28.60
2017,08,04,16,43,28.50
2017,08,04,16,44,28.50
2017,08,04,16,45,28.50
2017,08,04,16,46,28.40
2017,08,04,16,47,28.40
2017,08,04,16,48,28.30
2017,08,04,16,49,28.30
2017,08,04,16,50,28.30
2017,08,04,16,51,28.30
2017,08,04,16,52,28.30
2017,08,04,16,53,28.30
2017,08,04,16,54,28.30
2017,08,04,16,55,28.40
2017,08,04,16,56,28.40
2017,08,04,16,57,28.50
2017,08,04,16,58,28.60
2017,08,04,16,59,28.60
2017,08,04,17,00,28.60
2017,08,04,17,01,28.70
2017,08,04,17,02,28.60
2017,08,04,17,03,28.70
2017,08,04,17,04,28.70
2017,08,04,17,05,28.80
2017,08,04,17,06,28.90
2017,08,04,17,07,28.90
2017,08,04,17,08,29.00
2017,08,04,17,09,29.10
2017,08,04,17,10,29.00
2017,08,04,17,11,28.90
2017,08,04,17,12,28.80
2017,08,04,17,13,28.80
2017,08,04,17,14,28.80
2017,08,04,17,15,28.70
2017,08,04,17,16,28.70
2017,08,04,17,17,28.70
2017,08,04,17,18,28.70
2017,08,04,17,19,28.70